Sheringham Point, British Columbia

9:22 AM PST on December 15, 2017 (GMT -0800)
Sheringham Point

Weather History for CWSP - February, 2013

Change the Weather History Date:

Sunday, February 3, 2013

  Actual Average Record
Temperature  
Mean Temperature 42 °F -  
Max Temperature 45 °F - - ()
Min Temperature 39 °F - - ()
Degree Days  
Heating Degree Days 23    
Moisture  
Dew Point 41 °F    
Average Humidity 93    
Maximum Humidity 96    
Minimum Humidity 89    
Precipitation  
Precipitation 0.04 in - - ()
Sea Level Pressure  
Sea Level Pressure 30.24 in    
Wind  
Wind Speed 13 mph ()    
Max Wind Speed 36 mph    
Max Gust Speed -    
T = Trace of Precipitation, MM = Missing Value Source: Averaged Metar Reports

Daily Weather History Graph

Daily Weather History Graph

Search for Another Location

Airport or City:

Trip Planner

Search our weather history database for the weather conditions in past years. The results will help you decide how hot, cold, wet, or windy it might be!

Date:

Astronomy

Feb. 03, 2013 Rise Set
Actual Time 7:41 AM PST 5:18 PM PST
Civil Twilight 7:07 AM PST 5:51 PM PST
Nautical Twilight 6:30 AM PST 6:29 PM PST
Astronomical Twilight 5:54 AM PST 7:05 PM PST
Moon 1:17 AM PST (2/3) 10:56 AM PST (2/3)
Length of Visible Light 10h 44m
Length of Day
9h 37m
Waning Gibbous, 47% of the Moon is Illuminated
Feb 3
Waning Gibbous
Feb 9
New
Feb 17
First Quarter
Feb 25
Full
Mar 4
Last Quarter

Hourly Weather History & Observations

Time (PST) Temp. Windchill Dew Point Humidity Pressure Visibility Wind Dir Wind Speed Gust Speed Precip Events Conditions
12:00 AM 40.1 °F 36.1 °F 38.8 °F 95% 30.27 in - North 5.8 mph - N/A   Unknown
1:00 AM 40.1 °F 34.1 °F 38.8 °F 95% 30.26 in - North 9.2 mph - N/A   Unknown
2:00 AM 40.6 °F - 39.2 °F 95% 30.25 in - Calm Calm - N/A   Unknown
3:00 AM 41.2 °F 29.9 °F 39.7 °F 95% 30.26 in - North 31.1 mph - N/A   Unknown
4:00 AM 41 °F - 40 °F 93% 30.25 in - Calm Calm - -  
5:00 AM 41.4 °F 36.2 °F 39.7 °F 94% 30.25 in - North 8.1 mph - N/A   Unknown
6:00 AM 41.2 °F 35.5 °F 39.6 °F 94% 30.25 in - North 9.2 mph - N/A   Unknown
7:00 AM 41.4 °F 35.2 °F 39.6 °F 93% 30.25 in - North 10.4 mph - N/A   Unknown
8:00 AM 41.7 °F 37.3 °F 39.9 °F 93% 30.26 in - North 6.9 mph - N/A   Unknown
9:00 AM 42.3 °F 37.9 °F 40.6 °F 94% 30.26 in - North 6.9 mph - N/A   Unknown
10:00 AM 43 °F - 41 °F 89% 30.27 in - Calm Calm - -  
10:00 AM 43.0 °F 36.0 °F 40.8 °F 92% 30.27 in - North 13.8 mph - N/A   Unknown
11:00 AM 42.8 °F 36.2 °F 40.8 °F 93% 30.28 in - North 12.7 mph - N/A   Unknown
12:00 PM 43.3 °F 34.7 °F 41.4 °F 93% 30.27 in - North 20.7 mph - N/A   Unknown
1:00 PM 43.5 °F 35.8 °F 41.4 °F 92% 30.24 in - North 17.3 mph - N/A   Unknown
2:00 PM 43.5 °F 33.5 °F 41.2 °F 91% 30.24 in - North 28.8 mph - N/A   Unknown
3:00 PM 43.7 °F 36.0 °F 42.3 °F 95% 30.24 in - North 17.3 mph - N/A   Unknown
4:00 PM 44 °F - 42 °F 91% 30.23 in - Calm Calm - -  
4:00 PM 43.5 °F 38.3 °F 42.3 °F 95% 30.23 in - North 9.2 mph - 0.04 in   Unknown
5:00 PM 43.9 °F 32.9 °F 42.8 °F 96% 30.22 in - North 35.7 mph - 0.03 in   Unknown
6:00 PM 44.6 °F 34.1 °F 43.2 °F 95% 30.22 in - North 34.5 mph - 0.02 in   Unknown
7:00 PM 44.8 °F 34.3 °F 42.4 °F 91% 30.22 in - North 34.5 mph - N/A   Unknown
9:00 PM 45.0 °F 34.7 °F 42.1 °F 90% 30.20 in - North 33.4 mph - N/A   Unknown
10:00 PM 44 °F - 42 °F 89% 30.20 in - Calm Calm - -  
10:00 PM 44.2 °F 33.6 °F 41.7 °F 91% 30.20 in - North 34.5 mph - N/A   Unknown
11:00 PM 43.5 °F 32.6 °F 42.3 °F 95% 30.19 in - North 34.5 mph - N/A   Unknown